SCP
2 2 1 1 1 0 0 0 1 1 0 0 0 0 0 0 0 0 1 1 1 1 1 1 1 1 1 1 1 1 0 0 1 1 1 1 1 1 1 0 0 0 0 0 0 0 0 0 0
1 1 1 1 0 0 0 1 1 1 1 0 0 0 0 1 1 1 1 1 2 1 1 1 1 1 1 1 1 0 0 0 1 1 1 1 1 0 0 0 0 0 0 0 0 0 0 0 0
1 1 1 1 0 0 0 1 1 1 1 1 1 1 1 1 2 1 2 2 2 2 1 1 1 1 1 1 1 0 0 0 1 1 1 0 0 0 0 0 0 0 0 0 0 0 0 0 0
1 1 1 0 0 0 1 1 1 1 1 1 1 1 1 2 2 2 3 3 3 2 2 1 2 1 1 1 1 0 0 0 0 0 0 0 0 0 0 0 0 0 0 0 0 0 0 0 0
1 1 0 0 0 1 1 1 1 1 2 2 1 1 1 2 3 3 3 3 3 3 2 2 2 2 2 1 1 1 0 0 0 0 0 0 0 0 0 0 0 0 0 0 0 0 0 0 0
0 0 0 0 0 1 1 1 1 2 2 2 1 1 1 2 3 4 4 3 3 3 2 2 2 2 2 2 1 1 1 0 0 0 0 0 0 0 0 0 0 0 0 0 0 0 0 0 0
0 0 0 0 0 0 1 1 1 2 2 2 1 1 1 2 4 4 4 3 3 3 3 2 2 2 2 2 1 1 1 0 0 0 0 0 0 0 0 0 0 0 0 0 0 0 0 0 0
0 0 0 0 0 0 1 1 1 1 2 2 1 1 2 4 5 5 4 3 3 3 3 3 2 2 2 2 1 1 1 0 0 0 0 0 0 0 0 0 0 0 0 0 0 0 0 0 0
0 0 0 0 0 0 1 1 1 1 2 2 1 2 3 5 6 5 4 3 3 3 3 3 2 2 2 2 1 1 1 0 0 0 0 0 0 0 0 0 0 0 0 0 0 0 0 0 0
0 0 0 0 0 1 1 1 1 1 1 2 2 3 4 6 5 5 4 3 3 3 3 2 2 2 2 1 1 1 1 0 0 0 0 0 0 0 0 0 0 0 0 0 0 0 0 0 0
0 0 0 1 1 1 1 1 1 1 1 2 3 4 5 5 5 4 4 3 3 3 2 2 2 2 1 1 1 1 1 1 0 0 0 0 0 0 0 0 0 0 0 0 0 0 0 0 0
0 0 1 1 1 1 1 1 1 1 1 2 3 4 5 5 4 4 3 3 3 3 3 2 2 2 1 1 1 1 1 1 0 0 0 0 0 0 0 0 0 0 0 0 0 0 0 0 0
0 0 1 1 1 1 1 1 1 1 2 3 4 5 5 5 4 4 4 4 4 4 3 2 2 2 1 1 0 0 1 1 0 0 0 0 0 0 0 0 0 0 0 0 0 0 0 0 0
0 0 1 1 1 1 1 1 2 2 3 4 5 6 7 6 5 5 5 5 4 4 3 3 2 2 1 1 1 0 0 1 1 1 1 0 0 0 0 0 0 0 0 0 0 0 0 0 0
0 0 1 1 1 1 1 2 2 3 4 5 7 9 8 7 7 6 5 5 4 4 3 3 3 2 2 1 1 1 1 1 1 1 1 0 0 0 1 0 0 0 0 0 0 0 0 0 0
0 0 0 1 1 1 1 2 3 3 4 6 8 9 8 7 7 6 5 5 4 4 4 4 3 3 2 1 1 1 1 1 1 1 0 0 0 1 1 1 0 0 0 0 0 0 0 0 0
0 0 0 0 1 1 1 2 3 4 4 6 7 7 6 6 5 5 5 4 4 5 5 4 3 3 2 2 1 1 1 1 1 1 1 1 1 1 1 1 0 0 0 0 0 0 0 0 0
0 0 0 0 1 1 1 2 3 4 4 5 6 6 6 5 5 4 5 5 5 5 5 5 4 3 3 2 1 1 1 1 1 1 1 1 1 1 1 1 0 0 0 0 0 0 0 0 0
0 0 0 0 1 1 1 2 3 3 3 4 5 6 6 6 5 5 5 6 6 6 7 7 5 4 3 2 2 1 1 1 1 1 1 1 1 1 1 1 1 0 0 0 0 0 0 0 0
0 0 0 0 0 1 1 1 2 3 3 3 5 6 7 7 6 6 6 6 7 8 8 8 6 4 3 2 2 1 1 1 1 1 1 1 1 1 1 1 1 1 1 1 1 0 0 0 0
0 0 0 0 0 0 1 1 2 2 2 3 5 6 6 6 6 6 6 6 7 9 9 7 5 4 3 3 2 2 1 1 1 1 1 1 1 1 1 1 1 1 1 1 1 1 1 1 1
0 0 0 0 0 0 0 1 1 2 2 3 4 5 5 5 6 6 6 6 7 8 8 6 4 4 4 3 3 3 2 1 1 1 1 1 1 1 1 1 1 1 1 1 1 1 1 1 1
0 0 0 0 0 0 0 0 1 1 2 3 4 4 4 5 6 6 6 6 6 7 6 5 4 4 4 4 3 3 3 2 2 2 1 1 1 1 1 1 1 1 1 1 1 1 1 1 1
0 0 0 0 0 0 0 0 1 1 2 2 3 3 4 5 6 6 6 6 6 6 6 6 5 4 4 4 4 3 3 3 3 3 2 2 2 1 1 1 1 1 1 1 1 1 1 2 2
0 0 0 0 0 0 0 0 1 1 1 2 3 4 4 5 6 6 6 6 6 5 6 7 6 4 4 4 4 3 3 3 3 3 3 2 2 1 1 1 1 1 1 1 1 1 1 2 2
0 0 0 0 0 0 0 0 0 1 1 2 3 4 5 5 5 5 5 5 5 5 5 6 6 4 4 4 3 3 2 3 3 3 2 2 1 1 1 1 1 1 1 1 1 1 1 1 1
0 0 0 0 0 0 0 0 0 1 2 4 5 6 6 5 5 4 4 5 5 5 5 5 5 4 4 4 3 2 2 1 1 1 1 1 1 1 1 1 1 2 2 2 1 1 1 1 1
0 0 0 0 0 0 0 0 0 1 3 5 6 7 7 6 5 4 4 4 5 5 5 5 5 5 5 4 3 2 1 1 1 1 1 1 1 1 1 2 2 2 2 2 1 1 1 1 1
0 0 0 0 0 0 0 0 0 1 3 5 6 7 6 5 4 4 4 4 4 4 4 5 5 6 7 6 4 3 1 1 1 1 1 1 1 1 2 2 2 2 2 2 2 2 1 1 1
0 0 0 0 0 0 0 0 0 1 3 5 6 6 6 5 4 4 4 4 4 4 3 4 5 7 8 8 6 3 2 1 1 1 1 1 1 1 2 2 1 1 1 2 3 2 2 1 1
Wind_Speed
4 4 3 1 5 6 6 6 8 8 6 7 9 9 8 7 6 7 4 12 14 11 9 13 15 16 16 15 14 14 14 13 13 13 13 14 13 13 13 13 13 13 12 12 12 12 13 13 14
1 2 2 4 6 5 4 6 10 10 11 12 11 11 10 9 9 11 8 12 14 12 9 12 16 16 16 15 14 14 13 13 13 12 13 13 12 12 12 12 12 12 12 11 11 12 12 12 13
2 1 3 5 4 4 5 6 11 11 11 9 7 7 7 9 11 8 10 15 13 11 9 12 17 16 16 15 14 13 13 13 12 12 12 12 12 12 12 12 12 11 11 11 11 11 12 11 11
1 3 5 5 3 3 7 8 11 12 9 8 9 7 5 7 8 12 17 16 14 10 8 12 17 16 16 15 14 13 13 13 12 12 11 11 11 11 11 11 11 11 11 10 11 11 11 10 10
3 4 6 4 3 5 7 9 10 10 6 8 11 9 5 5 17 19 17 16 15 11 8 11 17 16 15 15 14 13 13 12 12 12 11 11 11 11 11 11 11 11 10 10 10 10 9 9 9
3 5 5 2 2 4 6 9 13 13 12 11 11 9 5 11 17 17 16 14 14 13 10 10 16 16 15 15 14 13 13 12 12 11 11 11 11 11 10 10 11 10 10 9 9 9 9 8 7
4 4 2 4 4 4 6 8 11 12 11 8 9 8 6 9 13 15 14 14 12 12 10 7 9 11 15 15 14 13 13 12 11 11 11 11 11 11 10 10 10 10 9 9 9 8 8 7 6
5 5 2 2 6 4 5 5 8 10 8 10 8 8 8 11 14 14 13 12 11 9 8 7 7 6 7 8 13 13 12 12 11 10 10 10 10 10 10 8 8 9 8 8 8 7 6 6 5
5 5 2 4 6 5 6 8 5 6 8 5 4 7 12 17 17 16 13 10 9 10 7 8 7 6 6 6 10 10 11 10 9 8 10 8 4 4 5 7 8 8 8 7 7 6 5 4 3
5 4 4 5 7 8 8 9 6 6 7 7 9 10 16 17 17 17 16 14 12 11 9 8 8 8 6 6 5 3 4 4 4 3 4 3 3 3 4 7 9 8 7 6 6 5 3 2 1
3 5 3 4 8 10 8 6 5 9 6 11 16 17 17 16 15 15 15 14 13 13 11 9 9 8 7 4 4 2 2 3 3 4 4 3 2 2 2 2 3 3 4 2 2 1 1 1 1
1 0 3 5 7 8 7 7 6 6 9 13 16 18 15 16 15 14 14 13 12 12 11 10 9 8 7 5 4 4 3 3 3 3 4 3 2 2 3 2 2 2 1 2 1 1 1 1 1
3 2 2 4 5 6 8 8 8 7 11 14 15 15 15 14 12 11 11 11 11 11 10 10 9 9 7 6 4 5 4 4 4 3 4 5 3 3 3 2 2 2 2 2 2 2 1 1 1
2 2 3 2 4 4 9 7 7 8 14 15 15 13 13 12 11 10 10 9 10 10 10 9 9 9 8 6 5 4 4 4 4 4 4 5 4 4 4 3 3 3 3 3 3 3 2 2 1
2 4 5 2 2 4 8 5 6 12 14 14 14 13 12 10 10 12 12 11 11 10 10 9 9 9 8 7 5 4 4 4 4 4 4 5 5 5 4 4 3 3 3 3 2 2 1 1 1
5 3 2 5 2 5 8 4 6 12 15 13 13 13 11 10 10 11 11 10 10 10 10 10 10 9 8 6 5 3 3 3 3 3 3 5 5 6 4 4 3 3 3 3 3 2 1 1 1
4 2 5 6 4 5 5 5 8 11 14 13 12 12 11 10 9 9 10 11 11 11 10 9 8 9 7 6 4 3 3 3 3 3 3 4 5 6 5 4 3 3 3 3 3 2 2 2 2
5 3 3 3 3 5 4 5 10 12 13 13 12 12 11 12 11 11 10 11 10 10 10 9 8 8 6 4 3 2 2 2 2 3 4 5 4 5 5 3 4 4 3 2 2 3 2 2 2
5 3 2 3 2 4 4 6 10 11 11 11 11 11 11 11 9 9 10 11 10 9 9 9 8 8 6 4 3 3 2 2 2 2 4 5 5 5 5 4 3 4 3 4 4 3 3 2 2
2 1 3 2 1 2 2 2 6 10 14 15 15 13 13 10 9 9 9 10 10 10 9 9 9 8 7 5 4 3 3 2 2 2 3 5 5 5 5 4 4 4 3 4 4 3 2 2 2
3 1 2 1 4 5 5 4 1 4 5 9 11 12 12 14 13 11 11 10 9 10 10 9 9 8 7 6 3 2 2 1 0 2 2 4 5 5 5 5 4 4 4 4 4 4 4 3 2
3 3 1 2 4 2 3 0 5 3 5 8 10 10 11 12 11 10 10 10 10 10 9 9 9 8 7 6 5 6 4 4 4 3 3 3 5 5 5 5 5 5 4 4 5 4 4 4 3
4 1 2 2 3 3 2 3 6 1 5 8 10 11 11 12 12 12 12 11 9 9 9 8 8 8 8 7 7 6 4 3 2 2 3 3 4 5 5 6 5 5 4 5 5 4 4 4 4
1 6 9 7 6 2 3 3 5 5 9 8 10 11 12 12 11 11 10 8 7 8 8 8 8 8 8 8 7 7 6 5 4 3 3 3 3 3 4 5 5 5 4 5 5 5 5 4 4
6 8 6 6 5 5 3 2 8 9 8 12 13 13 12 10 10 10 10 10 9 9 9 8 8 7 7 7 7 7 6 6 5 4 4 4 3 3 4 5 4 4 4 5 4 4 5 5 4
4 11 8 4 4 6 5 2 7 5 6 9 11 11 11 10 9 10 11 10 10 10 10 9 9 7 7 7 6 5 5 4 4 4 4 4 4 4 4 5 5 5 5 5 4 4 4 4 4
5 5 9 8 1 2 4 3 5 2 5 8 10 10 11 11 10 10 10 10 9 9 9 10 9 7 7 7 6 5 5 5 5 4 4 3 4 4 4 5 5 5 4 4 4 3 4 4 4
8 8 7 5 3 1 5 3 4 5 6 7 9 11 10 9 8 9 9 9 9 8 8 8 8 8 7 6 6 5 5 5 4 4 4 4 4 4 4 4 5 5 4 4 4 3 4 4 3
4 4 6 5 6 6 2 7 7 10 9 10 11 12 13 12 11 9 8 8 8 7 8 8 7 7 6 6 5 5 4 4 4 4 4 4 3 4 4 4 4 4 4 4 4 4 4 4 3
8 9 9 6 4 6 4 9 6 7 8 10 11 11 12 12 10 9 8 8 8 8 8 8 8 7 7 6 5 5 4 4 3 3 3 3 3 3 4 4 4 4 4 4 4 4 4 4 4
Wind_Direction
235 195 163 129 53 53 79 90 100 90 71 70 83 86 86 71 108 132 133 137 132 132 130 128 128 126 123 119 116 113 111 108 107 106 105 105 105 107 107 108 110 110 110 111 112 112 111 113 115
237 165 126 56 74 76 74 99 94 98 119 109 87 84 77 71 89 113 124 138 133 131 129 129 129 127 125 122 120 117 115 112 111 110 110 109 110 110 110 111 111 112 114 114 115 116 116 117 118
222 162 83 63 84 123 121 112 107 104 110 105 98 76 78 108 118 128 142 141 131 128 129 134 131 129 127 125 123 122 120 117 115 114 113 113 114 114 113 113 113 115 117 116 117 119 120 120 120
103 60 52 70 97 129 126 127 115 108 91 87 96 76 72 117 125 135 141 139 130 129 131 137 133 132 131 129 128 127 124 122 120 119 118 117 117 115 116 116 116 118 119 118 118 120 122 122 122
79 72 61 59 84 100 108 116 111 102 96 96 97 94 74 83 121 134 140 138 134 133 133 136 135 135 134 132 131 131 129 127 126 125 123 121 120 119 119 121 121 121 121 122 121 122 124 125 124
52 67 74 88 100 103 107 113 106 102 110 109 106 104 95 123 132 140 141 139 137 137 136 137 138 137 135 135 135 133 132 130 130 128 126 125 125 124 123 125 125 124 124 126 125 125 127 128 126
106 94 132 147 126 117 130 126 117 125 132 133 125 104 116 136 142 141 138 135 135 137 136 136 140 139 139 139 137 136 135 134 134 133 131 130 130 130 131 129 130 130 131 132 130 129 128 125 121
143 108 105 133 128 136 142 118 124 128 125 130 127 127 149 155 141 133 130 131 133 138 141 139 136 136 138 141 143 142 140 139 138 138 136 137 137 137 137 134 136 138 139 138 137 134 130 125 122
119 90 147 165 141 147 138 109 104 100 117 134 116 128 144 141 134 131 131 132 141 146 151 150 146 145 141 147 150 147 145 145 143 143 143 137 124 128 136 145 145 146 147 145 145 143 137 128 120
106 133 207 169 145 141 135 127 128 102 103 100 98 113 132 137 141 143 149 153 157 160 164 163 158 156 155 158 140 144 146 144 140 145 141 135 144 159 154 159 154 155 155 154 156 157 147 117 93
137 162 167 129 132 133 128 125 114 126 133 146 142 143 145 145 151 154 158 161 165 166 167 168 167 163 163 151 152 156 144 147 159 170 166 157 153 157 144 142 152 152 155 146 155 149 119 132 139
62 233 128 135 125 127 128 129 122 139 163 156 149 150 151 153 160 164 163 165 167 167 169 167 166 165 167 158 165 164 158 162 171 181 175 157 148 149 150 155 159 158 153 162 166 172 222 223 181
33 9 46 117 127 129 123 123 127 133 139 146 148 152 157 162 165 164 163 163 162 165 165 166 163 165 164 159 172 169 171 175 178 178 175 164 158 163 164 165 169 178 177 177 182 197 212 211 183
302 0 4 87 108 117 124 120 114 140 141 148 155 160 163 167 163 156 157 161 163 161 160 162 161 161 158 160 168 169 178 178 172 176 177 168 162 165 166 165 170 181 187 183 177 186 188 191 161
355 21 347 315 127 145 112 87 146 150 147 155 163 166 165 168 164 165 167 166 165 161 157 160 160 159 156 158 165 165 170 171 175 176 173 170 166 166 168 167 175 188 185 176 168 183 171 172 157
4 30 321 277 186 168 119 156 181 154 153 162 171 172 170 175 173 169 166 163 161 157 158 164 164 160 159 159 158 157 160 162 174 172 167 175 174 169 165 168 181 190 174 166 167 172 158 171 173
2 316 267 277 217 163 131 163 175 167 161 167 174 173 173 175 175 172 168 165 163 161 161 163 160 163 165 160 155 152 150 160 169 168 172 180 179 172 167 173 188 180 171 172 180 168 163 173 184
267 274 272 248 231 134 135 165 165 173 167 172 173 172 173 177 182 175 168 166 164 163 162 161 161 166 161 149 138 133 142 158 165 173 183 183 181 173 167 175 185 168 164 175 172 168 168 171 177
246 279 298 264 209 123 152 157 170 172 172 172 174 175 177 182 178 166 164 165 162 162 163 162 161 169 161 156 159 159 175 183 184 193 189 184 181 177 172 177 176 170 172 180 172 155 157 175 147
264 335 331 320 317 99 134 145 178 175 182 179 177 178 176 170 165 166 166 168 170 171 168 167 167 175 174 171 164 161 164 185 194 203 197 193 187 187 186 179 179 178 172 178 174 157 154 184 158
315 273 263 267 8 39 76 10 241 203 186 180 179 176 172 172 173 173 173 177 175 175 175 176 174 175 176 164 145 137 124 104 181 212 216 210 194 194 190 187 182 183 179 185 190 175 165 184 208
290 282 73 73 67 313 103 150 276 218 182 179 178 176 177 178 175 175 180 180 182 181 175 171 173 173 174 168 167 170 180 197 206 198 212 223 208 201 193 189 188 190 187 188 200 187 176 168 195
229 284 24 40 85 21 15 126 274 212 189 192 183 180 181 179 176 179 186 184 182 176 172 172 172 176 177 179 181 181 190 200 195 189 211 228 226 212 202 195 191 192 192 195 202 190 186 180 186
141 39 23 38 59 353 263 150 257 226 201 187 183 182 182 178 177 178 181 173 173 170 170 172 174 183 183 182 183 184 189 192 188 197 209 223 226 222 213 200 196 195 193 196 202 199 195 196 195
79 75 27 1 11 262 279 162 242 236 200 180 177 179 178 172 169 168 169 172 172 172 174 175 174 182 182 182 187 190 191 189 196 201 207 210 216 219 217 206 201 201 203 202 199 200 204 199 198
157 132 151 188 222 283 332 238 259 240 193 165 161 162 161 166 171 171 172 172 174 176 174 174 177 181 179 182 188 189 187 188 201 204 202 208 215 217 213 204 206 204 203 206 197 199 206 201 207
154 171 168 141 194 316 299 297 317 59 127 140 148 149 161 169 173 173 171 169 171 174 176 175 176 177 181 184 182 186 190 194 203 209 209 215 220 219 213 206 204 205 201 200 192 203 209 200 210
164 155 98 110 141 268 302 277 226 202 166 151 155 162 164 164 169 170 169 171 173 176 174 170 173 177 178 180 183 187 194 200 204 202 210 218 224 223 202 204 204 202 200 202 195 202 206 199 209
179 148 120 127 150 150 238 272 232 197 179 166 171 171 167 169 175 174 172 171 167 166 165 167 170 169 173 181 185 185 192 199 199 202 213 217 221 210 200 198 198 199 201 204 203 210 203 202 214
178 177 148 153 207 162 167 265 273 195 177 165 170 172 171 172 169 166 165 161 160 164 168 171 172 172 178 180 181 187 187 185 191 208 215 209 210 209 203 190 190 197 199 197 201 211 206 200 208